{"data":{"norad_id":65991,"epoch":"2026-05-24T22:44:45.706272Z","epoch_age_seconds":75689,"freshness":"FRESH","line1":"1 65991U 25230T   26144.94775123  .00000162  00000+0  13176-3 0  9996","line2":"2 65991  81.3016 233.1094 0003016 255.8326 104.2496 13.85300921 30601","mean_motion":13.85300921,"eccentricity":0.0003016,"inclination_deg":81.3016,"raan_deg":233.1094,"arg_perigee_deg":255.8326,"mean_anomaly_deg":104.2496,"bstar":0.00013176,"rev_number":3060,"period_min":103.94853408172,"perigee_km":942.93632132183,"apogee_km":947.35372503821,"semimajor_km":7323.28202318,"source":"CELESTRAK","updated_at":"2026-05-25T13:38:05.881567Z"}}